SL-14 DEB *, 47086

Orbit data source: Space-Track

SL-14 DEB *, 47086 is space debris in LEO originally from a launch on Thu, 15 Aug 1991 UTC launched from the Plesetsk Missile And Space Complex (PKMTR). Debris objects in space refer to the collection of defunct objects orbiting the Earth. Examples of debris include non-operational satellites, rocket bodies, and fragments generated from explosions, collisions, or faulty payload assembly.

Loading next visibility...
Identifier
47086, 1991-056DL
Orbit
LEO
Country
Flag of CISCIS
Related business
Manufacturer
Unknown
Mission
Spacecraft
Bus & Motor
Unknown
Mass
Unknown
Launch date (UTC)
1991-08-15 (34 years ago)
Launch vehicle
Unknown
Launch site
Plesetsk Missile And Space Complex (PKMTR)
Object type
Payload
Rocket body
Debris
Shape & HBR
Unknown shape, 0.1 m
Radar Cross Section
Small (<0.1 m²)

Expand to show TLE details & history
Last TLE update: 4 days ago

TLE from 4 days ago
0 SL-14 DEB *
1 47086U 91056DL  26033.59993787  .00002453  00000-0  10989-2 0  9990
2 47086  82.5533 350.9613 0014362  53.2779 306.9719 14.22177446271002
Epoch: 2026-02-02T14:23Z
TLE epoch observation values (Epoch: 2026-02-02T14:23:54.631Z)
Latitude
-0.00006°
Longitude
2.19076°
Altitude
814.746 km
Speed
7.449 km/s
True Right ascension
23h 23m 50s
True Declination
0° 00' 00"
Sunlit
Object was in daylight at epoch
Visualization orbit readout
Latitude
Unknown
Longitude
Unknown
Altitude
Unknown
Speed
Unknown
Apparent Right ascension
Unknown
Apparent Declination
Unknown
Sunlit
N/A
Visualization observer readout
Local Sidereal Time
07:13:48
Azimuth
Unknown
Elevation
Unknown
Doppler factor
Unknown
Orbital elements
Apogee altitude
825.429 km
Perigee altitude
804.767 km
Semi-major axis
7,193.235 km
Eccentricity
0.00144
Inclination
82.5533°
RAAN
350.9613°
Arg. of periapsis
53.2779°
True anomaly
306.84027°
Mean anomaly
306.9719°
Eccentric anomaly
306.9061°
Mean motion
3.5576 °/min
Orbital period
101.19 mins
BSTAR
0.0010989
Loading maneuver chart data...
Computing Atmospheric mass density...
Loading historical data...
Loading historical data...
Loading historical data...
Loading historical data...
Loading historical data...
Loading historical data...
Loading historical data...

Documentation

Showing up to 5 results
|